Погода в Малиновке

Россия / Амурская область     49°46′58″N   129°50′17″E
темп.,
°C
ветер,
м/с
пор.,
м/с
влажн.,
%
обл.,
%
осадки,
мм/ч
давл.,
гПа
погр.,
м
24 апреля, сб
сб2400:00+4ссз6123016 0.0 1028530
03:00+2ссз612410 0.0 1029756
06:00+1сз411460 0.0 1029618
09:00+6сз68331 0.0 10281293
12:00+9сз9132322 0.0 10262739
15:00+11ссз11152013 0.0 10243080
18:00+9ссз816245 0.0 10223131
21:00+8сз8153055 0.0 10211767
25 апреля, вс
вс2500:00+2с514827 0.1 10241164
03:00+2ссз511560 0.1 1024580
06:00+1ссз510480 0.0 1026526
09:00+5ссз58300 0.0 10261377
12:00+8ссз68200 0.0 10241869
15:00+10ссз68185 0.0 10221956
18:00+10ссз56245 0.0 10211902
21:00+7ююз22335 0.0 102010
26 апреля, пн
пн2600:00+5ююз34399 0.0 101945
03:00+3ю223845 0.0 101822
06:00+2ююв334757 0.0 101867
09:00+9ю453797 0.0 1016449
12:00+15ю6727100 0.0 10121368
15:00+18ю682159 0.0 10092074
18:00+17ю5925100 0.0 1007418
21:00+14ю61429100 0.0 1006326
27 апреля, вт
вт2700:00+13ююв81729100 0.0 1004470
03:00+11ююв71245100 0.2 1003353
06:00+10ююв71454100 1.3 1001593
09:00+15ю91245100 1.3 10001256
12:00+18ююз81135100 0.0 9991821
15:00+14ю6953100 0.5 10001357
18:00+14ююв81263100 0.3 998744
21:00+11ююв71374100 0.3 998455
28 апреля, ср
ср2800:00+10ююз51167100 0.0 997401
03:00+8зюз596760 0.0 999495
06:00+6з377293 0.0 1001618
09:00+8зюз4554100 0.0 10021201
12:00+10юз474693 0.0 10031728
15:00+7зюз667094 0.6 1004775
18:00+9зюз254451 0.4 10041716
21:00+5ююв33695 0.5 100661